Wind_Speed
58 59 58 58 57 57 57 56 55 53 54 58 59 52 47 48 51 49 51 49 49 48 47 46 44 40 38 39 36 37 37 40 40 38 34 39 42 44 48 50 41 41 49
54 55 55 55 55 56 57 54 50 50 54 58 57 48 40 40 42 41 42 46 46 44 44 44 43 39 37 35 34 33 35 38 40 39 38 37 37 32 34 40 45 41 44
57 56 55 53 51 50 50 49 50 51 53 55 51 42 37 34 33 36 37 37 39 36 33 36 33 35 33 32 31 33 34 35 37 37 37 37 37 31 41 44 36 40 40
57 57 56 55 53 50 49 49 49 50 50 48 45 42 38 36 36 36 35 32 31 31 30 28 28 29 29 29 30 32 33 34 34 34 33 36 38 42 39 45 45 42 44
55 54 53 54 50 47 47 45 47 48 47 41 42 44 42 39 37 35 32 30 31 31 29 26 24 25 26 27 29 32 33 33 34 37 37 38 37 43 31 26 38 47 41
50 51 48 44 43 47 50 50 46 45 41 36 36 36 35 34 34 31 30 28 29 29 25 23 22 24 24 28 29 32 32 34 37 38 38 34 38 39 43 38 38 40 40
45 48 50 49 54 60 56 49 41 39 33 28 27 24 23 25 28 29 28 28 27 24 23 20 21 23 26 28 30 31 32 35 37 32 31 28 33 33 34 36 34 34 28
50 53 57 60 57 51 46 44 37 30 27 28 26 24 25 23 20 16 16 18 18 21 21 20 22 24 23 25 29 31 33 33 29 34 33 27 23 27 33 31 18 4 9
57 51 49 46 38 35 34 34 27 27 26 24 19 18 18 16 14 12 13 16 20 20 19 20 19 19 19 24 28 30 31 28 26 18 17 19 18 19 11 15 11 6 5
44 39 29 22 23 23 26 24 23 21 22 15 13 10 9 11 14 15 14 11 14 15 15 17 20 15 17 20 21 22 10 8 14 14 19 22 21 18 13 8 4 6 10
24 26 20 18 17 16 19 18 13 14 12 12 9 6 7 8 7 9 10 13 14 21 23 19 12 12 15 17 14 10 21 16 15 15 15 13 11 8 5 3 7 10 14
22 18 17 12 9 15 16 15 15 12 14 10 7 8 8 12 9 6 9 18 22 19 14 9 8 10 11 13 15 6 13 12 11 9 6 5 3 3 6 10 14 17 21
8 5 7 11 19 22 20 17 16 17 14 13 16 20 20 17 21 11 9 8 8 10 7 7 9 11 13 15 11 18 13 8 3 0 3 4 6 8 12 16 19 24 29
16 18 19 21 22 22 20 21 21 20 22 29 18 7 16 14 14 8 9 9 6 4 8 10 10 9 5 24 23 12 5 3 3 5 7 10 11 12 15 19 23 27 32
23 24 25 27 27 26 28 30 34 30 26 21 20 18 10 9 7 6 7 6 6 7 8 9 8 14 25 19 11 8 2 3 6 9 12 14 16 18 20 23 27 30 33
29 33 32 30 31 36 37 34 30 29 22 21 15 9 8 8 7 3 2 4 9 7 6 17 25 24 19 12 5 2 4 7 10 13 15 17 19 22 25 26 27 29 28
35 37 35 36 36 34 35 32 24 21 20 13 10 12 10 8 6 1 5 3 9 26 33 27 21 13 7 3 3 6 9 11 13 16 18 20 23 24 25 26 26 25 22
39 35 34 34 35 33 29 26 25 23 18 15 11 12 11 7 9 25 36 36 32 27 20 16 11 6 4 5 7 10 13 15 17 19 22 24 24 25 25 25 22 19 16
38 36 34 32 30 29 29 28 26 22 17 14 12 11 8 30 32 31 25 23 19 17 14 10 7 5 7 9 12 15 18 20 21 22 23 23 22 22 21 19 17 14 14
34 34 34 31 29 27 26 23 24 22 20 17 20 28 30 26 22 19 17 17 15 12 8 7 7 9 11 14 17 18 20 21 21 21 21 22 24 23 21 18 15 13 11
32 30 29 26 22 25 26 27 23 22 22 29 28 23 20 21 18 16 14 12 10 9 8 9 12 16 18 18 19 19 18 18 21 26 26 26 23 21 17 15 13 10 8
22 20 22 26 29 30 25 23 28 31 28 23 19 16 16 17 15 13 11 11 10 11 13 16 16 15 14 14 15 19 23 25 26 25 24 23 21 18 16 15 12 8 6
29 33 34 30 25 27 32 35 32 26 22 19 15 13 12 14 13 11 10 10 10 11 13 14 15 16 18 19 20 23 25 24 23 23 23 21 19 18 17 16 12 8 6
33 33 30 31 36 34 31 27 23 21 18 15 12 13 12 10 9 9 10 13 15 16 17 19 20 21 21 21 23 23 23 22 22 21 20 19 19 18 18 17 13 8 6
28 32 34 32 30 27 24 21 18 17 15 14 12 10 10 11 11 13 15 17 18 20 22 22 21 20 20 21 22 22 21 21 20 19 19 18 18 19 19 18 14 9 7
36 33 29 26 24 22 20 19 19 17 15 12 11 11 11 13 15 17 19 20 21 20 20 19 18 19 19 20 20 20 20 19 19 20 19 18 17 18 18 18 16 11 8
Wind_Direction
274 275 276 277 278 278 278 278 279 284 289 292 296 290 284 277 272 268 270 272 273 274 274 274 274 275 272 267 269 268 271 277 278 278 277 267 264 263 263 264 268 259 252
277 278 278 277 276 276 276 277 280 284 287 289 294 289 282 276 274 271 264 266 271 273 273 275 276 274 272 269 267 269 273 274 273 276 277 275 268 259 248 253 247 251 269
276 275 275 275 276 276 276 278 281 283 284 286 290 284 281 275 273 274 272 273 274 275 277 273 271 269 272 270 269 268 268 270 271 276 276 274 265 257 260 256 260 261 264
277 276 276 275 275 275 276 278 280 279 280 279 281 282 280 275 276 277 276 270 269 273 273 275 269 267 267 268 267 263 265 269 270 272 279 276 272 260 252 255 250 255 257
275 275 274 273 272 269 269 273 279 279 277 276 277 275 273 272 275 276 270 266 265 269 268 266 265 262 262 262 262 263 266 268 272 275 279 274 275 265 261 250 249 250 261
271 270 269 266 267 273 272 276 275 274 275 280 277 269 265 266 266 263 263 263 263 266 260 262 260 256 257 259 260 263 268 272 278 282 279 274 268 265 256 260 261 252 258
275 272 270 267 274 281 279 272 265 264 270 269 273 272 264 260 263 262 262 259 254 254 251 250 251 256 258 261 264 268 274 283 285 282 274 279 266 251 252 268 267 252 253
278 280 278 279 276 270 263 260 253 257 258 259 265 263 264 262 258 250 248 243 240 239 238 238 244 253 262 269 274 278 280 282 280 285 274 269 255 252 257 249 236 122 59
279 280 280 277 268 259 251 246 244 246 248 262 264 258 259 248 236 223 233 235 229 229 229 235 249 255 264 280 292 300 295 285 289 276 266 257 249 212 148 79 61 35 340
282 283 279 271 257 248 238 236 236 245 246 228 241 234 227 224 225 230 238 241 226 226 228 239 241 258 284 300 302 315 330 55 97 114 108 88 78 76 76 66 22 327 328
282 284 287 281 279 243 214 215 230 202 192 199 188 216 220 209 201 197 214 206 219 237 228 232 239 276 295 302 308 269 92 77 73 71 74 75 79 80 71 4 317 320 330
275 276 273 277 205 176 183 187 175 180 169 163 180 164 150 141 148 167 201 223 232 217 224 233 264 282 286 288 288 137 93 97 77 70 79 73 50 358 353 348 342 337 333
260 244 162 142 137 142 155 159 154 146 145 147 139 135 150 195 148 178 199 231 230 216 218 261 272 274 280 272 248 121 118 120 130 289 347 6 359 351 345 342 336 335 338
125 121 122 125 129 134 137 132 132 134 131 131 139 128 118 157 176 190 206 227 227 227 244 257 278 270 258 148 128 137 149 106 354 4 357 347 341 339 335 335 338 340 339
115 117 118 117 119 122 125 127 124 120 143 140 144 155 151 157 179 233 223 200 235 247 237 255 233 157 132 109 116 116 98 304 333 337 336 334 334 332 332 336 338 337 336
114 115 112 110 114 116 126 130 129 130 131 132 146 155 174 172 156 168 298 270 292 252 188 161 132 105 97 100 81 2 341 338 334 332 331 330 330 333 336 333 331 333 334
113 112 110 106 112 123 123 123 127 127 133 138 123 119 113 111 119 304 275 309 117 131 117 101 99 99 91 88 14 345 334 332 334 333 330 331 334 333 328 327 328 328 330
112 110 110 116 121 124 127 128 126 127 121 112 120 112 109 32 103 121 118 116 105 97 100 99 97 101 67 12 344 340 343 339 333 331 333 333 330 325 323 323 326 330 338
104 104 110 118 123 121 120 113 111 113 123 119 88 65 82 122 111 94 95 101 103 99 95 96 80 39 3 354 352 348 339 334 331 331 333 329 322 321 327 334 338 341 343
110 110 111 113 114 112 111 107 108 102 80 67 90 121 123 108 103 101 97 92 88 82 70 44 20 4 360 357 350 341 337 338 338 333 332 336 338 338 340 342 343 342 342
113 108 107 107 105 106 108 107 97 85 84 107 104 103 103 102 95 87 81 78 68 50 31 16 7 2 355 347 340 338 341 343 346 348 344 340 340 343 346 346 345 343 345
115 114 114 115 112 108 102 91 93 99 109 109 97 95 91 83 77 70 58 46 35 20 8 1 354 349 344 342 350 357 356 352 349 346 346 347 350 351 355 356 352 350 3
111 109 112 109 101 100 108 109 111 111 108 98 91 82 74 69 58 48 36 23 11 6 7 4 1 359 359 0 359 355 354 354 352 353 355 357 1 3 4 5 7 16 27
115 111 106 107 112 112 110 108 104 98 92 86 76 64 55 49 40 30 24 21 17 14 9 6 4 1 359 356 355 355 357 355 355 357 0 5 7 9 12 14 19 35 42
114 115 112 110 108 103 99 96 91 84 75 64 52 41 39 36 30 24 20 17 13 9 4 0 358 357 356 356 358 359 357 355 356 359 1 5 11 14 17 21 26 39 53
115 114 112 109 104 101 95 85 75 63 50 40 37 35 35 30 25 21 16 11 5 360 358 358 359 359 359 360 1 0 358 357 359 0 5 8 12 16 20 24 27 39 58
Height
5693 5691 5690 5689 5689 5687 5686 5685 5685 5683 5679 5677 5674 5670 5667 5665 5664 5666 5667 5669 5669 5670 5671 5672 5674 5674 5675 5675 5676 5677 5677 5675 5673 5671 5671 5669 5668 5670 5674 5677 5679 5678 5677
5677 5676 5674 5674 5673 5672 5671 5670 5670 5669 5666 5662 5659 5657 5655 5654 5653 5653 5655 5657 5658 5659 5659 5661 5662 5663 5665 5665 5666 5666 5666 5664 5663 5660 5659 5658 5659 5662 5660 5663 5666 5667 5665
5661 5660 5659 5658 5657 5657 5655 5655 5655 5654 5652 5648 5647 5645 5644 5644 5644 5644 5645 5647 5648 5648 5649 5650 5651 5653 5654 5655 5656 5657 5655 5653 5652 5649 5647 5647 5646 5644 5650 5651 5651 5653 5655
5642 5642 5642 5642 5642 5641 5640 5641 5641 5640 5638 5636 5634 5634 5633 5633 5633 5634 5635 5637 5638 5639 5640 5641 5642 5644 5644 5646 5646 5645 5644 5644 5643 5642 5639 5637 5636 5634 5637 5637 5640 5642 5642
5625 5625 5624 5624 5625 5625 5625 5627 5627 5626 5625 5624 5622 5621 5621 5622 5623 5625 5626 5628 5629 5630 5631 5633 5634 5636 5636 5636 5636 5635 5635 5634 5634 5632 5630 5628 5626 5625 5625 5625 5629 5629 5630
5608 5608 5607 5607 5609 5610 5611 5612 5613 5613 5613 5611 5609 5608 5610 5612 5614 5615 5617 5619 5620 5622 5624 5626 5626 5628 5627 5627 5627 5627 5627 5626 5624 5622 5620 5618 5617 5615 5615 5614 5617 5617 5617
5592 5592 5591 5591 5592 5593 5595 5597 5598 5601 5601 5600 5600 5600 5602 5603 5605 5607 5609 5610 5612 5615 5617 5619 5620 5621 5620 5621 5620 5620 5620 5618 5615 5612 5609 5608 5604 5605 5607 5607 5607 5607 5606
5576 5576 5575 5575 5575 5575 5579 5582 5586 5589 5590 5591 5593 5594 5595 5595 5597 5599 5602 5604 5606 5608 5612 5613 5615 5615 5616 5617 5615 5614 5612 5610 5606 5602 5600 5600 5599 5599 5600 5601 5601 5602 5603
5560 5558 5557 5556 5557 5560 5564 5569 5574 5577 5579 5583 5585 5586 5588 5590 5593 5596 5598 5599 5601 5605 5607 5610 5612 5613 5613 5613 5611 5607 5602 5598 5596 5593 5593 5593 5593 5593 5596 5598 5603 5606 5607
5544 5543 5542 5541 5544 5548 5554 5560 5564 5569 5572 5575 5579 5582 5583 5587 5590 5592 5595 5598 5601 5604 5606 5608 5609 5610 5611 5611 5609 5604 5599 5594 5592 5591 5591 5593 5595 5597 5599 5602 5604 5605 5604
5532 5533 5533 5534 5536 5540 5546 5553 5559 5562 5567 5572 5576 5579 5582 5586 5588 5591 5594 5597 5601 5602 5604 5605 5607 5609 5609 5608 5606 5602 5600 5600 5600 5600 5599 5599 5600 5601 5601 5603 5604 5603 5599
5525 5526 5528 5528 5529 5535 5543 5549 5555 5561 5566 5571 5575 5579 5583 5586 5589 5593 5594 5598 5599 5600 5602 5603 5605 5606 5606 5604 5603 5601 5603 5604 5603 5604 5604 5603 5603 5602 5601 5600 5599 5596 5593
5520 5521 5524 5526 5530 5535 5543 5550 5555 5562 5567 5572 5577 5580 5585 5585 5588 5594 5596 5597 5598 5600 5602 5603 5604 5603 5603 5602 5601 5602 5605 5606 5606 5606 5605 5604 5603 5600 5598 5597 5595 5591 5585
5519 5523 5527 5530 5534 5540 5546 5553 5558 5564 5571 5575 5580 5585 5589 5590 5593 5595 5597 5598 5599 5600 5601 5601 5602 5601 5601 5601 5603 5607 5608 5608 5607 5606 5604 5602 5600 5598 5595 5591 5588 5583 5578
5525 5529 5532 5536 5540 5545 5551 5557 5564 5569 5575 5580 5584 5588 5591 5593 5595 5596 5596 5597 5598 5599 5600 5600 5600 5600 5601 5603 5606 5607 5608 5608 5606 5604 5602 5599 5596 5593 5590 5586 5581 5576 5570
5534 5537 5541 5544 5549 5554 5560 5564 5568 5575 5580 5584 5589 5591 5592 5594 5596 5596 5596 5597 5597 5598 5598 5599 5602 5604 5605 5607 5608 5609 5608 5606 5604 5602 5599 5596 5592 5587 5582 5579 5574 5569 5564
5544 5548 5551 5554 5559 5565 5570 5576 5581 5583 5586 5590 5593 5595 5596 5597 5598 5598 5598 5596 5598 5601 5602 5604 5606 5607 5609 5610 5610 5609 5607 5605 5602 5599 5595 5591 5586 5582 5578 5573 5569 5565 5561
5555 5558 5561 5566 5571 5575 5579 5582 5585 5589 5592 5596 5598 5598 5599 5599 5598 5599 5600 5602 5604 5607 5608 5608 5610 5611 5611 5611 5609 5607 5605 5602 5599 5595 5591 5586 5581 5577 5573 5568 5565 5561 5557
5567 5570 5573 5577 5581 5584 5587 5590 5593 5596 5597 5599 5600 5601 5601 5605 5607 5607 5609 5610 5611 5612 5612 5613 5613 5613 5612 5610 5608 5605 5603 5599 5595 5591 5586 5581 5577 5572 5568 5564 5560 5557 5555
5579 5581 5585 5588 5592 5595 5597 5598 5600 5602 5603 5603 5605 5608 5611 5612 5613 5615 5616 5616 5616 5616 5617 5616 5615 5614 5612 5609 5606 5603 5600 5595 5590 5586 5581 5576 5571 5566 5563 5560 5557 5555 5553
5590 5593 5596 5599 5600 5602 5603 5605 5608 5609 5611 5614 5618 5619 5620 5619 5620 5621 5620 5620 5620 5620 5619 5617 5615 5612 5610 5607 5604 5601 5597 5592 5586 5580 5575 5572 5568 5564 5560 5557 5555 5553 5552
5600 5602 5603 5606 5609 5611 5613 5614 5615 5617 5620 5622 5624 5626 5625 5624 5625 5624 5624 5623 5622 5621 5619 5617 5615 5613 5611 5607 5602 5597 5592 5587 5582 5578 5573 5569 5565 5561 5558 5556 5553 5552 5550
5609 5612 5614 5616 5618 5619 5621 5622 5624 5626 5628 5629 5630 5631 5630 5629 5628 5628 5627 5626 5625 5623 5621 5618 5615 5612 5607 5603 5599 5595 5590 5585 5581 5576 5572 5568 5564 5561 5558 5555 5552 5551 5549
5619 5622 5624 5625 5627 5629 5630 5632 5633 5634 5635 5635 5635 5634 5633 5633 5631 5630 5629 5627 5625 5622 5620 5616 5613 5609 5605 5602 5598 5593 5588 5584 5580 5576 5572 5568 5565 5562 5558 5555 5552 5550 5549
5630 5631 5633 5636 5637 5638 5639 5640 5640 5640 5640 5640 5639 5638 5636 5635 5633 5632 5629 5627 5625 5622 5619 5615 5612 5609 5605 5601 5597 5592 5588 5584 5580 5576 5573 5569 5566 5562 5559 5556 5553 5551 5551
5640 5642 5644 5645 5646 5646 5647 5647 5647 5647 5646 5644 5642 5640 5638 5637 5635 5632 5630 5628 5625 5622 5618 5615 5612 5609 5605 5601 5596 5592 5588 5584 5580 5577 5573 5570 5567 5564 5561 5558 5556 5554 5553